Location: ???? ???? ?????
(31.2680°N, 31.7283°E)
Time: 23:32:11
(UTC+00:00)

Daily predictions for brighter satellites

Satellite Brightness Start Highest point End
(mag) Time Altitude Azimuth Time Altitude Azimuth Time Altitude Azimuth
Cosmos 2333 Rocket 2.2 17:16:32 10° S 17:22:09 71° ESE 17:27:50 10° NNE
Cosmos 773 Rocket 4.0 17:18:31 10° S 17:23:47 74° ESE 17:29:03 10° NNE
Resurs 01 Rocket 3.7 17:24:58 10° E 17:26:46 12° ENE 17:28:35 10° NE
SEDSat Delta rocket 4.1 17:22:16 10° SW 17:27:02 39° SSE 17:32:29 10° E
CZ-2C R/B 3.5 17:22:30 10° S 17:28:07 75° WSW 17:33:30 10° NNW
ATLAS CENTAUR R/B 3.2 17:26:10 10° NNE 17:28:16 15° NE 17:30:22 10° E
Cosmos 1328 4.2 17:28:30 10° SSE 17:32:15 42° E 17:36:00 10° NNE
BREEZE-M (TANK) 3.8 17:30:22 10° SSE 17:32:29 19° ESE 17:36:14 10° ENE
Cosmos 1538 Rocket 4.2 17:27:49 10° S 17:33:01 54° ESE 17:38:12 10° NNE
Cosmos 1825 Rocket 3.9 17:29:26 10° SSE 17:33:41 46° E 17:37:58 10° NNE
DMSP B5D2-2 4.1 17:33:26 10° NNE 17:38:36 64° ESE 17:43:44 10° S
OAO 2 Rocket 3.6 17:36:08 10° WNW 17:41:21 72° NNE 17:46:38 10° E
SJ-6B 3.0 17:38:24 10° SSE 17:42:20 61° ENE 17:46:23 10° N
ATLAS CENTAUR R/B 3.4 17:41:58 10° WNW 17:44:15 25° SW 17:48:19 10° S
Hubble Space Telescope 0.9 17:43:51 10° WSW 17:47:54 58° S 17:51:31 13° E
Cosmos-2242 3.7 17:44:26 10° NNE 17:48:30 36° E 17:52:03 13° SE
Cosmos 1745 Rocket 4.2 17:43:48 10° S 17:50:00 78° W 17:56:17 10° N
CZ-3A R/B 4.2 17:33:41 10° SW 17:50:48 26° S 17:56:10 14° SE
Cosmos 1812 Rocket 3.7 17:47:47 10° N 17:52:06 77° W 17:56:25 10° S
GPS 2-04 Rocket1 4.4 17:54:40 10° S 17:55:30 12° SSE 17:55:30 12° SSE
Ariane Rocket 3.4 17:54:32 10° S 17:59:34 63° WSW 18:04:37 10° NNW
Cosmos 2084 4.2 17:56:47 10° NNW 18:00:57 39° NE 18:03:40 19° ESE
MOS 1 4.4 17:56:20 10° S 18:01:58 80° WSW 18:07:38 10° NNW
Cosmos 1455 2.5 18:00:56 10° NNW 18:04:46 69° W 18:08:36 10° S
Milstar 3 4.4 17:56:19 10° W 18:06:07 71° S 18:23:02 15° ESE
Meteor 2-10 Rocket 4.1 18:02:36 10° NNW 18:07:50 61° W 18:13:16 10° S
MetOp-A 4.1 18:02:43 10° SSE 18:08:04 85° ENE 18:13:26 10° NNW
USA 186 4.2 18:13:44 10° SSW 18:16:17 21° W 18:18:45 10° NW
Cosmos 1980 3.6 18:11:48 10° S 18:17:22 67° ESE 18:22:58 10° NNE
Meteor 1-11 4.3 18:14:34 10° S 18:20:12 86° W 18:25:56 10° N
Atlas Centaur 2 2.7 18:17:00 10° W 18:21:14 36° SSW 18:23:47 23° SSE
Mugunghwa Rocket 4.4 18:16:41 10° SW 18:22:38 42° SSE 18:26:29 22° ESE
Alouette 2 Rocket 4.5 18:18:48 10° N 18:23:52 78° E 18:30:45 14° SSE
Cosmos 2219 Rocket 4.0 18:19:06 10° SW 18:24:07 33° WNW 18:29:08 10° N
Cosmos 1680 Rocket 3.6 18:22:07 10° S 18:27:13 54° ESE 18:32:24 10° NNE
CZ-2C R/B 4.1 18:23:36 10° N 18:28:27 38° WNW 18:33:12 10° SW
FALCON 9 R/B 2.0 18:27:39 10° W 18:29:24 20° SW 18:29:24 20° SW
Cosmos 2058 4.2 18:32:57 24° E 18:32:57 24° E 18:35:49 10° NE
Cosmos 2237 Rocket 2.1 18:27:56 10° SSW 18:33:38 88° ESE 18:39:21 10° NNE
Cosmos 1709 Rocket 4.5 18:27:53 10° SSW 18:34:05 62° W 18:40:24 10° N
Cosmos 44 2.8 18:31:09 10° SSW 18:35:24 73° ESE 18:39:45 10° NNE
Gbstr 26 Del rocket 4.0 18:33:57 10° WSW 18:37:42 40° NW 18:41:14 10° NNE
ATLAS 2AS CENTAUR R/B 4.0 18:35:15 10° N 18:41:29 29° NE 18:44:46 20° E
Cosmos 1315 Rocket 2.9 18:38:39 10° N 18:42:45 62° E 18:43:33 50° SE
H-2A ROCKET BODY 3.4 18:38:18 10° W 18:42:47 51° S 18:50:32 25° SE
Cosmos 2344 3.4 18:35:45 10° SSW 18:43:36 68° ESE 18:51:03 10° NE
Cosmos 158 Rocket 3.7 18:42:07 18° S 18:45:40 79° ESE 18:50:33 10° NNE
Cosmos 923 Rocket 4.3 18:42:36 10° SSW 18:47:47 67° WNW 18:53:03 10° N
USA 215 3.7 18:44:39 10° ENE 18:50:28 34° SE 18:50:29 34° SE
Landsat 7 4.1 18:53:10 45° ESE 18:53:57 50° ENE 18:58:33 10° N
USA 81 4.3 18:50:57 18° SSW 18:54:48 69° W 19:00:04 10° N
ERS-1 Rocket 4.0 18:56:30 29° ENE 18:56:51 29° ENE 19:01:09 10° NNE
Cosmos 1892 3.2 19:01:47 47° NE 19:01:47 47° NE 19:04:45 10° NNE
Cosmos 2184 Rocket 3.9 18:58:38 32° S 19:01:44 77° E 19:08:03 10° N
Resurs 01 Rocket 2.5 19:01:00 29° SSW 19:02:48 45° W 19:07:02 10° NNW
SPOT 1/Viking Rocket 3.7 19:03:17 48° ESE 19:04:02 53° ENE 19:09:03 10° N
ISS -3.0 19:01:55 10° WSW 19:05:11 51° NW 19:05:49 43° N
ATLAS CENTAUR R/B 2.5 19:03:59 10° NW 19:07:09 28° WSW 19:07:25 28° WSW
Meteor 2-2 Rocket 4.2 19:04:09 10° N 19:09:46 61° E 19:10:39 54° ESE
SEDSat Delta rocket 3.6 19:07:36 10° WSW 19:13:13 82° S 19:15:19 44° E
Cosmos 1842 Rocket 3.5 19:14:05 10° N 19:18:22 80° W 19:18:22 80° W
Cosmos 2278 Rocket 2.1 19:13:00 10° NNW 19:18:41 88° ENE 19:19:38 64° SSE
SL-16 R/B 2.0 19:22:51 60° S 19:23:54 82° ESE 19:29:35 10° NNE
SPOT 5 3.4 19:25:45 46° NE 19:25:45 46° NE 19:29:47 10° N
In-Cosmos 22 Rocket 4.4 19:23:56 39° SW 19:25:45 63° W 19:31:03 10° N
OAO 2 Rocket 4.0 19:21:05 10° W 19:25:39 44° SW 19:25:39 44° SW
USA 245 3.9 19:27:12 54° WNW 19:27:12 54° WNW 19:31:16 10° NNW
Hubble Space Telescope 2.5 19:24:58 10° W 19:26:50 24° WSW 19:26:50 24° WSW
Cosmos 1825 4.3 19:32:06 20° NNE 19:32:06 20° NNE 19:33:27 10° NNE
Cosmos 2221 2.9 19:27:18 10° NNW 19:31:12 62° WNW 19:31:12 62° WNW
CARTOSAT-1 4.2 19:32:36 49° NNE 19:32:36 49° NNE 19:35:55 10° N
GEOS 3 Rocket 3.7 19:26:25 10° NNE 19:31:49 82° WNW 19:33:50 40° SW
Spot 2 Rocket 4.1 19:38:39 46° WSW 19:39:14 48° W 19:44:11 10° NNW
Cosmos 1869 4.4 19:36:35 10° NNW 19:39:48 42° WNW 19:39:48 42° WNW
Terra 2.6 19:42:28 42° NE 19:42:28 42° NE 19:46:00 10° N
Cosmos 1371 Rocket 4.2 19:37:23 10° N 19:42:08 61° NE 19:42:08 61° NE
Cosmos 2154 Rocket 4.0 19:41:49 57° SSW 19:43:05 76° W 19:49:20 10° N
Nadezhda 3 Rocket 3.9 19:37:51 10° N 19:44:10 71° E 19:44:20 70° E
BREEZE-M R/B 4.1 19:39:20 10° NW 19:48:12 56° SW 19:48:14 56° SW
Cosmos 1295 Rocket 4.4 19:56:53 71° WSW 19:57:20 74° W 20:03:25 10° N
Cosmos 2341 Rocket 3.9 19:58:39 72° NE 19:58:39 72° NE 20:04:24 10° N
Cosmos 2369 Rocket 4.2 20:01:12 10° NNE 20:04:14 16° NE 20:04:14 16° NE
NOSS 3-4 (A) 3.9 19:58:11 10° NNW 20:05:32 76° WSW 20:06:21 69° SSW
NOSS 3-4 (C) 3.8 19:58:18 10° NNW 20:05:39 77° WSW 20:06:27 70° SSW
Cosmos 2056 Rocket 3.9 20:00:18 10° NNW 20:04:48 62° NNW 20:04:48 62° NNW
DELTA 2 R/B (1) 4.3 20:08:58 10° WNW 20:14:14 47° NNE 20:14:14 47° NNE
VEP-3 4.0 20:15:15 10° WSW 20:39:28 15° ESE 20:45:47 10° ESE
ATLAS 2AS CENTAUR R/B 3.2 20:25:46 10° NW 20:32:12 49° W 20:32:12 49° W
USA 215 3.9 20:27:11 10° NNE 20:33:30 53° NW 20:37:39 22° WSW
Cosmos 1943 Rocket 3.3 20:28:28 10° N 20:32:21 36° NNE 20:32:21 36° NNE
MOS 1-B Rocket 4.5 20:27:38 10° NNE 20:32:50 55° NE 20:32:50 55° NE
COSMOS 2455 3.6 20:36:13 10° NNW 20:40:48 47° NNE 20:40:48 47° NNE
Lacrosse 5 rocket 4.3 20:39:35 10° N 20:40:13 13° N 20:40:13 13° N
Cosmos 1943 4.4 20:56:20 37° NNE 20:56:20 37° NNE 20:59:41 10° NNE
CZ-4C R/B 3.8 20:48:22 10° NNW 20:55:29 41° NE 20:56:16 40° ENE
Cosmos 2369 Rocket 3.9 21:43:30 10° NNW 21:46:00 27° NW 21:46:00 27° NW
Lacrosse 5 4.2 22:31:31 19° NNW 22:31:31 19° NNW 22:34:23 10° N
H-2A R/B 4.2 22:37:07 67° SE 22:37:07 67° SE 23:20:06 10° E
USA 267 3.8 22:44:53 52° NNW 22:44:53 52° NNW 22:49:37 10° NW
CZ-4C R/B 4.1 22:36:51 10° NW 22:41:24 33° WNW 22:41:24 33° WNW
Cosmos 2082 Rocket 4.2 22:58:49 20° E 22:58:49 20° E 23:01:40 10° NE
Cosmos 1833 Rocket 4.1 23:03:12 32° ENE 23:03:12 32° ENE 23:06:34 10° NE
COSMOS 2406 4.2 23:07:36 45° NNE 23:07:36 45° NNE 23:11:30 10° NNE
SeaSat 1 4.2 23:02:48 10° NE 23:05:15 27° NE 23:05:15 27° NE
CZ-2D R/B 3.3 23:04:18 10° NNE 23:07:49 38° NE 23:07:49 38° NE
Cosmos 1802 Rocket 4.3 23:18:11 64° NE 23:18:11 64° NE 23:23:38 10° N
Cosmos 1725 Rocket 4.1 23:36:24 68° ENE 23:36:24 68° ENE 23:42:06 10° N
ARIANE 5 R/B 4.4 23:38:45 10° NE 23:42:31 20° E 23:42:50 20° E
ADEOS II 2.9 23:43:08 10° NNE 23:47:41 44° E 23:47:41 44° E
NPP 4.1 23:43:06 10° N 23:47:21 55° N 23:47:21 55° N
Resurs 1-4 Rocket 2.9 23:47:21 10° N 23:51:17 44° NNW 23:51:17 44° NNW
